EIN850 EICK-LEBB

Flight info

Callsign EIN850
Flight time 1h 32m
Altitude 23000
Route ERTER DCT LEDGO N160 EVCOR/N0436F370 DCT DOLUR DCT IDRIK DCT NENEM N867 MAPAX
Aircraft A320/M-SDE2E3FGHIRWXY/LB1

Departure

Time 2026-04-27 13:34
Airport Cork International Airport (EICK)

Arrival

Time 2026-04-27 15:07
Airport Bilbao Airport (LEBB)
Time Latitude Longitude Altitude Speed Heading
2026-04-27 13:15 51.84936 -8.49114 498 ft 0 kts 70°
2026-04-27 13:26 51.84935 -8.49123 498 ft 2 kts 70°
2026-04-27 13:26 51.84930 -8.49146 497 ft 2 kts 70°
2026-04-27 13:26 51.84924 -8.49169 497 ft 2 kts 70°
2026-04-27 13:27 51.84919 -8.49191 497 ft 2 kts 70°
2026-04-27 13:27 51.84914 -8.49213 496 ft 1 kts 70°
2026-04-27 13:27 51.84911 -8.49228 496 ft 2 kts 56°
2026-04-27 13:27 51.84900 -8.49244 495 ft 2 kts 25°
2026-04-27 13:28 51.84885 -8.49249 495 ft 2 kts 355°
2026-04-27 13:28 51.84877 -8.49247 495 ft 1 kts 340°
2026-04-27 13:28 51.84874 -8.49245 495 ft 0 kts 340°
2026-04-27 13:31 51.84883 -8.49251 495 ft 2 kts 340°
2026-04-27 13:31 51.84914 -8.49268 495 ft 6 kts 343°
2026-04-27 13:31 51.84970 -8.49287 495 ft 9 kts 345°
2026-04-27 13:31 51.85043 -8.49328 495 ft 11 kts 340°
2026-04-27 13:32 51.85116 -8.49371 496 ft 8 kts 341°
2026-04-27 13:32 51.85152 -8.49423 495 ft 7 kts 278°
2026-04-27 13:32 51.85123 -8.49494 494 ft 8 kts 210°
2026-04-27 13:32 51.85061 -8.49542 493 ft 11 kts 205°
2026-04-27 13:33 51.84995 -8.49592 493 ft 8 kts 205°
2026-04-27 13:33 51.84942 -8.49595 492 ft 8 kts 161°
2026-04-27 13:33 51.84878 -8.49556 492 ft 13 kts 160°
2026-04-27 13:33 51.84558 -8.49366 491 ft 85 kts 160°
2026-04-27 13:34 51.83783 -8.48904 475 ft 148 kts 160°
2026-04-27 13:34 51.82717 -8.48290 800 ft 168 kts 160°
2026-04-27 13:34 51.81599 -8.47687 1346 ft 174 kts 161°
2026-04-27 13:34 51.80447 -8.47076 1964 ft 179 kts 161°
2026-04-27 13:35 51.79243 -8.46462 2516 ft 185 kts 158°
2026-04-27 13:35 51.78110 -8.45430 2863 ft 196 kts 135°
2026-04-27 13:35 51.77169 -8.43766 3214 ft 210 kts 126°
2026-04-27 13:35 51.76189 -8.41813 3517 ft 233 kts 126°
2026-04-27 13:36 51.75115 -8.39724 3965 ft 250 kts 127°
2026-04-27 13:36 51.73957 -8.37554 4486 ft 265 kts 128°
2026-04-27 13:36 51.72730 -8.35315 5147 ft 273 kts 129°
2026-04-27 13:36 51.71463 -8.33037 5964 ft 276 kts 129°
2026-04-27 13:37 51.70191 -8.30766 6752 ft 279 kts 129°
2026-04-27 13:37 51.68882 -8.28439 7528 ft 283 kts 129°
2026-04-27 13:37 51.67565 -8.26101 8326 ft 286 kts 129°
2026-04-27 13:37 51.66221 -8.23721 9113 ft 290 kts 129°
2026-04-27 13:38 51.64860 -8.21311 9898 ft 294 kts 129°
2026-04-27 13:38 51.63494 -8.18893 10677 ft 297 kts 129°
2026-04-27 13:38 51.62079 -8.16387 11229 ft 309 kts 129°
2026-04-27 13:38 51.60624 -8.13817 11887 ft 316 kts 129°
2026-04-27 13:39 51.59147 -8.11213 12628 ft 319 kts 129°
2026-04-27 13:39 51.57652 -8.08580 13350 ft 322 kts 129°
2026-04-27 13:39 51.56131 -8.05948 14026 ft 326 kts 130°
2026-04-27 13:39 51.54498 -8.03386 14683 ft 331 kts 132°
2026-04-27 13:40 51.52825 -8.00810 15339 ft 335 kts 132°
2026-04-27 13:40 51.51160 -7.98252 15946 ft 338 kts 132°
2026-04-27 13:40 51.49440 -7.95613 16557 ft 342 kts 131°
2026-04-27 13:40 51.47716 -7.92966 17156 ft 346 kts 131°
2026-04-27 13:41 51.45998 -7.90330 17735 ft 350 kts 131°
2026-04-27 13:41 51.44223 -7.87609 18314 ft 353 kts 131°
2026-04-27 13:41 51.42464 -7.84915 18903 ft 355 kts 131°
2026-04-27 13:41 51.40658 -7.82151 19440 ft 359 kts 130°
2026-04-27 13:42 51.38856 -7.79394 19863 ft 366 kts 131°
2026-04-27 13:42 51.37020 -7.76588 20383 ft 369 kts 131°
2026-04-27 13:42 51.35162 -7.73757 20893 ft 372 kts 131°
2026-04-27 13:42 51.33268 -7.70873 21426 ft 375 kts 131°
2026-04-27 13:43 51.31382 -7.68006 21955 ft 377 kts 131°
2026-04-27 13:43 51.29504 -7.65154 22464 ft 379 kts 130°
2026-04-27 13:43 51.27574 -7.62228 22972 ft 381 kts 130°
2026-04-27 13:43 51.25653 -7.59319 23456 ft 384 kts 130°
2026-04-27 13:44 51.23719 -7.56391 23937 ft 386 kts 130°
2026-04-27 13:44 51.21784 -7.53468 24427 ft 388 kts 130°
2026-04-27 13:44 51.19819 -7.50501 24907 ft 390 kts 130°
2026-04-27 13:44 51.17849 -7.47533 25372 ft 393 kts 130°
2026-04-27 13:45 51.15869 -7.44551 25801 ft 395 kts 130°
2026-04-27 13:45 51.13865 -7.41536 26228 ft 398 kts 130°
2026-04-27 13:45 51.11842 -7.38494 26636 ft 401 kts 129°
2026-04-27 13:45 51.09822 -7.35467 27043 ft 404 kts 129°
2026-04-27 13:46 51.07774 -7.32398 27441 ft 406 kts 130°
2026-04-27 13:46 51.05705 -7.29299 27852 ft 409 kts 130°
2026-04-27 13:46 51.03647 -7.26223 28225 ft 411 kts 130°
2026-04-27 13:46 51.01559 -7.23104 28576 ft 415 kts 130°
2026-04-27 13:47 50.99466 -7.19984 28940 ft 417 kts 130°
2026-04-27 13:47 50.97347 -7.16833 29303 ft 419 kts 129°
2026-04-27 13:47 50.95212 -7.13661 29663 ft 421 kts 129°
2026-04-27 13:47 50.93079 -7.10494 29996 ft 424 kts 129°
2026-04-27 13:48 50.90912 -7.07290 30315 ft 426 kts 129°
2026-04-27 13:48 50.88741 -7.04092 30656 ft 428 kts 129°
2026-04-27 13:48 50.86574 -7.00904 30921 ft 430 kts 129°
2026-04-27 13:48 50.84390 -6.97692 31224 ft 431 kts 129°
2026-04-27 13:49 50.82168 -6.94426 31509 ft 433 kts 129°
2026-04-27 13:49 50.79966 -6.91190 31773 ft 435 kts 130°
2026-04-27 13:49 50.77775 -6.87979 32050 ft 436 kts 130°
2026-04-27 13:49 50.75542 -6.84715 32311 ft 438 kts 130°
2026-04-27 13:50 50.73302 -6.81442 32578 ft 439 kts 130°
2026-04-27 13:50 50.71077 -6.78199 32835 ft 440 kts 130°
2026-04-27 13:50 50.68833 -6.74929 33069 ft 442 kts 130°
2026-04-27 13:50 50.66581 -6.71652 33302 ft 443 kts 130°
2026-04-27 13:51 50.64322 -6.68370 33561 ft 443 kts 130°
2026-04-27 13:51 50.62050 -6.65074 33819 ft 443 kts 130°
2026-04-27 13:51 50.59805 -6.61820 34113 ft 442 kts 130°
2026-04-27 13:51 50.57555 -6.58566 34372 ft 441 kts 130°
2026-04-27 13:52 50.55322 -6.55339 34679 ft 440 kts 130°
2026-04-27 13:52 50.53054 -6.52065 34933 ft 438 kts 131°
2026-04-27 13:52 50.50833 -6.48862 35121 ft 438 kts 131°
2026-04-27 13:52 50.48600 -6.45646 35307 ft 438 kts 131°
2026-04-27 13:53 50.44115 -6.39203 35643 ft 438 kts 131°
2026-04-27 13:53 50.41859 -6.35969 35793 ft 439 kts 131°
2026-04-27 13:53 50.39610 -6.32746 35932 ft 440 kts 133°
2026-04-27 13:54 50.37369 -6.29544 36053 ft 440 kts 132°
2026-04-27 13:54 50.35088 -6.26287 36180 ft 441 kts 133°
2026-04-27 13:54 50.32838 -6.23078 36316 ft 441 kts 133°
2026-04-27 13:55 50.28317 -6.16643 36499 ft 443 kts 133°
2026-04-27 13:55 50.26043 -6.13414 36627 ft 443 kts 133°
2026-04-27 13:55 50.23772 -6.10194 36767 ft 443 kts 133°
2026-04-27 13:55 50.21477 -6.06944 36910 ft 444 kts 133°
2026-04-27 13:56 50.19212 -6.03741 36979 ft 445 kts 134°
2026-04-27 13:56 50.16927 -6.00514 37114 ft 445 kts 134°
2026-04-27 13:56 50.14608 -5.97243 37191 ft 447 kts 134°
2026-04-27 13:57 50.10014 -5.90777 37278 ft 448 kts 134°
2026-04-27 13:57 50.05407 -5.84308 37255 ft 448 kts 134°
2026-04-27 13:58 50.00782 -5.77834 37260 ft 448 kts 134°
2026-04-27 13:58 49.96152 -5.71370 37279 ft 447 kts 134°
2026-04-27 13:59 49.91538 -5.64940 37249 ft 447 kts 134°
2026-04-27 13:59 49.86927 -5.58542 37246 ft 447 kts 134°
2026-04-27 14:00 49.82262 -5.52075 37247 ft 447 kts 134°
2026-04-27 14:00 49.77591 -5.45623 37248 ft 447 kts 135°
2026-04-27 14:01 49.72960 -5.39239 37259 ft 447 kts 135°
2026-04-27 14:01 49.68320 -5.32862 37230 ft 447 kts 136°
2026-04-27 14:02 49.63667 -5.26483 37221 ft 448 kts 136°
2026-04-27 14:02 49.59016 -5.20124 37241 ft 448 kts 136°
2026-04-27 14:03 49.54386 -5.13818 37238 ft 448 kts 136°
2026-04-27 14:03 49.49563 -5.07781 37228 ft 448 kts 142°
2026-04-27 14:04 49.44327 -5.02608 37226 ft 449 kts 148°
2026-04-27 14:04 49.38645 -4.98095 37241 ft 450 kts 151°
2026-04-27 14:05 49.33033 -4.93726 37231 ft 450 kts 151°
2026-04-27 14:05 49.27476 -4.89407 37240 ft 450 kts 152°
2026-04-27 14:06 49.21890 -4.85079 37242 ft 450 kts 152°
2026-04-27 14:06 49.16342 -4.80790 37235 ft 448 kts 152°
2026-04-27 14:07 49.10769 -4.76493 37236 ft 448 kts 152°
2026-04-27 14:07 49.05235 -4.72237 37219 ft 448 kts 152°
2026-04-27 14:08 48.99665 -4.67959 37233 ft 448 kts 152°
2026-04-27 14:08 48.94118 -4.63714 37227 ft 449 kts 152°
2026-04-27 14:09 48.88568 -4.59476 37233 ft 448 kts 152°
2026-04-27 14:09 48.83020 -4.55253 37222 ft 446 kts 152°
2026-04-27 14:10 48.77509 -4.51064 37209 ft 445 kts 152°
2026-04-27 14:10 48.71994 -4.46886 37209 ft 444 kts 152°
2026-04-27 14:11 48.66488 -4.42723 37207 ft 444 kts 153°
2026-04-27 14:11 48.60943 -4.38542 37206 ft 444 kts 153°
2026-04-27 14:12 48.55441 -4.34403 37214 ft 444 kts 153°
2026-04-27 14:12 48.49939 -4.30274 37214 ft 444 kts 154°
2026-04-27 14:13 48.44423 -4.26142 37209 ft 443 kts 154°
2026-04-27 14:13 48.38930 -4.22040 37197 ft 444 kts 154°
2026-04-27 14:14 48.33410 -4.17929 37200 ft 443 kts 154°
2026-04-27 14:14 48.27878 -4.13819 37173 ft 444 kts 154°
2026-04-27 14:15 48.22388 -4.09748 37176 ft 444 kts 154°
2026-04-27 14:15 48.16860 -4.05658 37165 ft 444 kts 154°
2026-04-27 14:16 48.11346 -4.01589 37162 ft 444 kts 154°
2026-04-27 14:16 48.05806 -3.97512 37170 ft 445 kts 155°
2026-04-27 14:17 48.00235 -3.93420 37160 ft 446 kts 155°
2026-04-27 14:17 47.94683 -3.89355 37168 ft 445 kts 155°
2026-04-27 14:18 47.89136 -3.85301 37160 ft 445 kts 155°
2026-04-27 14:18 47.83593 -3.81257 37162 ft 445 kts 155°
2026-04-27 14:19 47.78078 -3.77245 37155 ft 444 kts 155°
2026-04-27 14:19 47.72546 -3.73230 37159 ft 444 kts 155°
2026-04-27 14:20 47.66978 -3.69264 37159 ft 444 kts 158°
2026-04-27 14:20 47.61249 -3.66057 37161 ft 442 kts 164°
2026-04-27 14:21 47.55297 -3.63819 37156 ft 441 kts 171°
2026-04-27 14:21 47.49247 -3.62579 37161 ft 439 kts 176°
2026-04-27 14:22 47.43196 -3.61700 37152 ft 438 kts 175°
2026-04-27 14:22 47.37141 -3.60810 37154 ft 438 kts 175°
2026-04-27 14:23 47.31051 -3.59918 37160 ft 438 kts 176°
2026-04-27 14:23 47.25045 -3.59041 37155 ft 438 kts 176°
2026-04-27 14:24 47.18988 -3.58159 37153 ft 438 kts 176°
2026-04-27 14:24 47.12915 -3.57275 37153 ft 437 kts 176°
2026-04-27 14:25 47.06882 -3.56401 37156 ft 437 kts 176°
2026-04-27 14:25 47.00864 -3.55531 37157 ft 436 kts 176°
2026-04-27 14:26 46.94846 -3.54663 37152 ft 436 kts 176°
2026-04-27 14:26 46.88834 -3.53797 37174 ft 436 kts 176°
2026-04-27 14:27 46.82843 -3.52934 37147 ft 435 kts 176°
2026-04-27 14:27 46.76796 -3.52072 37153 ft 436 kts 176°
2026-04-27 14:28 46.70791 -3.51212 37152 ft 435 kts 177°
2026-04-27 14:28 46.64776 -3.50354 37147 ft 435 kts 177°
2026-04-27 14:29 46.58770 -3.49499 37138 ft 434 kts 177°
2026-04-27 14:29 46.52773 -3.48646 37147 ft 434 kts 177°
2026-04-27 14:30 46.46773 -3.47796 37143 ft 434 kts 177°
2026-04-27 14:30 46.40786 -3.46947 37148 ft 433 kts 177°
2026-04-27 14:31 46.34804 -3.46105 37128 ft 433 kts 177°
2026-04-27 14:31 46.28825 -3.45265 37143 ft 434 kts 177°
2026-04-27 14:32 46.22821 -3.44421 37143 ft 433 kts 177°
2026-04-27 14:32 46.16843 -3.43585 37140 ft 433 kts 178°
2026-04-27 14:33 46.10848 -3.42745 37131 ft 433 kts 178°
2026-04-27 14:33 46.04892 -3.41913 37136 ft 433 kts 178°
2026-04-27 14:34 45.98869 -3.41076 37125 ft 433 kts 178°
2026-04-27 14:34 45.92926 -3.40250 37137 ft 432 kts 178°
2026-04-27 14:35 45.86929 -3.39419 37136 ft 432 kts 178°
2026-04-27 14:35 45.80989 -3.38595 37133 ft 432 kts 178°
2026-04-27 14:36 45.75009 -3.37773 37134 ft 432 kts 178°
2026-04-27 14:36 45.69064 -3.36953 37119 ft 431 kts 178°
2026-04-27 14:37 45.63094 -3.36132 37125 ft 431 kts 178°
2026-04-27 14:37 45.57150 -3.35317 37115 ft 431 kts 178°
2026-04-27 14:38 45.51161 -3.34498 37115 ft 431 kts 179°
2026-04-27 14:38 45.45208 -3.33684 37116 ft 431 kts 179°
2026-04-27 14:39 45.39259 -3.32872 37122 ft 430 kts 179°
2026-04-27 14:39 45.33324 -3.32065 37123 ft 430 kts 179°
2026-04-27 14:40 45.27380 -3.31259 37118 ft 430 kts 179°
2026-04-27 14:40 45.24441 -3.30862 36898 ft 430 kts 179°
2026-04-27 14:40 45.21478 -3.30459 36610 ft 427 kts 179°
2026-04-27 14:40 45.18511 -3.30055 36335 ft 423 kts 179°
2026-04-27 14:41 45.15621 -3.29662 36118 ft 420 kts 179°
2026-04-27 14:41 45.12702 -3.29266 35871 ft 417 kts 180°
2026-04-27 14:41 45.09841 -3.28880 35525 ft 417 kts 180°
2026-04-27 14:41 45.06965 -3.28493 35048 ft 416 kts 180°
2026-04-27 14:42 45.04084 -3.28105 34503 ft 416 kts 180°
2026-04-27 14:42 45.01217 -3.27720 33842 ft 416 kts 180°
2026-04-27 14:42 44.98349 -3.27336 33305 ft 412 kts 180°
2026-04-27 14:42 44.95525 -3.26957 32895 ft 408 kts 180°
2026-04-27 14:43 44.92709 -3.26581 32476 ft 405 kts 180°
2026-04-27 14:43 44.89930 -3.26209 32053 ft 402 kts 180°
2026-04-27 14:43 44.87154 -3.25838 31622 ft 399 kts 180°
2026-04-27 14:43 44.84418 -3.25473 31167 ft 396 kts 180°
2026-04-27 14:44 44.81697 -3.25111 30715 ft 393 kts 180°
2026-04-27 14:44 44.78978 -3.24747 30242 ft 390 kts 180°
2026-04-27 14:44 44.76315 -3.24394 29779 ft 386 kts 180°
2026-04-27 14:44 44.73631 -3.24038 29318 ft 383 kts 180°
2026-04-27 14:45 44.71027 -3.23693 28833 ft 380 kts 180°
2026-04-27 14:45 44.68400 -3.23345 28338 ft 377 kts 180°
2026-04-27 14:45 44.65798 -3.23000 27874 ft 373 kts 179°
2026-04-27 14:45 44.63238 -3.22660 27394 ft 370 kts 179°
2026-04-27 14:46 44.60714 -3.22325 26930 ft 366 kts 179°
2026-04-27 14:46 44.58190 -3.21989 26490 ft 362 kts 179°
2026-04-27 14:46 44.55687 -3.21658 26047 ft 359 kts 179°
2026-04-27 14:46 44.53238 -3.21334 25598 ft 356 kts 179°
2026-04-27 14:47 44.50786 -3.21011 25154 ft 353 kts 179°
2026-04-27 14:47 44.48354 -3.20690 24711 ft 350 kts 179°
2026-04-27 14:47 44.45929 -3.20372 24258 ft 348 kts 178°
2026-04-27 14:47 44.43540 -3.20056 23825 ft 346 kts 178°
2026-04-27 14:48 44.41162 -3.19742 23396 ft 343 kts 178°
2026-04-27 14:48 44.36448 -3.19123 22496 ft 341 kts 178°
2026-04-27 14:48 44.34071 -3.18811 22030 ft 340 kts 178°
2026-04-27 14:49 44.31746 -3.18506 21587 ft 339 kts 178°
2026-04-27 14:49 44.29384 -3.18197 21137 ft 338 kts 178°
2026-04-27 14:49 44.27066 -3.17894 20692 ft 337 kts 178°
2026-04-27 14:49 44.24723 -3.17586 20245 ft 336 kts 178°
2026-04-27 14:50 44.22415 -3.17285 19806 ft 336 kts 177°
2026-04-27 14:50 44.20088 -3.16980 19368 ft 335 kts 177°
2026-04-27 14:50 44.17774 -3.16678 18936 ft 334 kts 177°
2026-04-27 14:50 44.15502 -3.16380 18513 ft 333 kts 177°
2026-04-27 14:51 44.13199 -3.16080 18078 ft 332 kts 177°
2026-04-27 14:51 44.10888 -3.15779 17635 ft 332 kts 176°
2026-04-27 14:51 44.08615 -3.15483 17199 ft 331 kts 176°
2026-04-27 14:51 44.06319 -3.15176 16764 ft 331 kts 175°
2026-04-27 14:52 44.04048 -3.14706 16334 ft 331 kts 171°
2026-04-27 14:52 44.01785 -3.14065 15889 ft 331 kts 170°
2026-04-27 14:52 43.99538 -3.13412 15465 ft 330 kts 170°
2026-04-27 14:52 43.97298 -3.12759 15044 ft 329 kts 170°
2026-04-27 14:53 43.95063 -3.12111 14621 ft 328 kts 170°
2026-04-27 14:53 43.92850 -3.11469 14206 ft 326 kts 170°
2026-04-27 14:53 43.90635 -3.10827 13780 ft 325 kts 170°
2026-04-27 14:53 43.88441 -3.10193 13353 ft 324 kts 170°
2026-04-27 14:54 43.86224 -3.09552 12965 ft 322 kts 170°
2026-04-27 14:54 43.84065 -3.08929 12574 ft 319 kts 170°
2026-04-27 14:54 43.81901 -3.08304 12183 ft 317 kts 170°
2026-04-27 14:54 43.79728 -3.07679 11787 ft 316 kts 170°
2026-04-27 14:55 43.77609 -3.07068 11373 ft 314 kts 170°
2026-04-27 14:55 43.75471 -3.06451 10967 ft 311 kts 169°
2026-04-27 14:55 43.73368 -3.05846 10623 ft 306 kts 169°
2026-04-27 14:55 43.71324 -3.05258 10309 ft 299 kts 169°
2026-04-27 14:56 43.69309 -3.04678 10091 ft 290 kts 169°
2026-04-27 14:56 43.67385 -3.04113 9914 ft 282 kts 169°
2026-04-27 14:56 43.65476 -3.03515 9509 ft 283 kts 168°
2026-04-27 14:56 43.63560 -3.02907 9124 ft 283 kts 168°
2026-04-27 14:57 43.61634 -3.02297 8766 ft 282 kts 168°
2026-04-27 14:57 43.59728 -3.01696 8386 ft 277 kts 168°
2026-04-27 14:57 43.57890 -3.01178 7993 ft 266 kts 176°
2026-04-27 14:57 43.56120 -3.01533 7607 ft 253 kts 206°
2026-04-27 14:58 43.54779 -3.02947 7253 ft 244 kts 233°
2026-04-27 14:58 43.54015 -3.05007 6890 ft 241 kts 251°
2026-04-27 14:58 43.53490 -3.07177 6496 ft 242 kts 251°
2026-04-27 14:58 43.52870 -3.09340 6138 ft 243 kts 246°
2026-04-27 14:59 43.52110 -3.11419 5797 ft 244 kts 240°
2026-04-27 14:59 43.51218 -3.13397 5490 ft 244 kts 236°
2026-04-27 14:59 43.50210 -3.15270 5203 ft 242 kts 231°
2026-04-27 14:59 43.49123 -3.17005 4887 ft 241 kts 227°
2026-04-27 15:00 43.47944 -3.18635 4585 ft 239 kts 223°
2026-04-27 15:00 43.46691 -3.20144 4304 ft 238 kts 218°
2026-04-27 15:00 43.45385 -3.21517 4014 ft 237 kts 214°
2026-04-27 15:00 43.43892 -3.22438 3692 ft 233 kts 183°
2026-04-27 15:01 43.42338 -3.22120 3462 ft 222 kts 153°
2026-04-27 15:01 43.41118 -3.20995 3431 ft 203 kts 129°
2026-04-27 15:01 43.40369 -3.19472 3503 ft 186 kts 114°
2026-04-27 15:01 43.39839 -3.17866 3474 ft 185 kts 110°
2026-04-27 15:02 43.39323 -3.16253 3456 ft 185 kts 111°
2026-04-27 15:02 43.38786 -3.14664 3439 ft 179 kts 112°
2026-04-27 15:02 43.38243 -3.13139 3400 ft 176 kts 113°
2026-04-27 15:02 43.37701 -3.11653 3208 ft 175 kts 114°
2026-04-27 15:03 43.37153 -3.10171 2972 ft 174 kts 114°
2026-04-27 15:03 43.36616 -3.08728 2734 ft 164 kts 114°
2026-04-27 15:03 43.36098 -3.07333 2539 ft 163 kts 114°
2026-04-27 15:03 43.35589 -3.05959 2304 ft 157 kts 114°
2026-04-27 15:04 43.35113 -3.04676 2085 ft 145 kts 114°
2026-04-27 15:04 43.34674 -3.03488 1870 ft 135 kts 113°
2026-04-27 15:04 43.34253 -3.02343 1710 ft 135 kts 113°
2026-04-27 15:04 43.33835 -3.01215 1552 ft 133 kts 114°
2026-04-27 15:05 43.33403 -3.00095 1368 ft 132 kts 114°
2026-04-27 15:05 43.32996 -2.98962 1187 ft 131 kts 112°
2026-04-27 15:05 43.32596 -2.97840 1019 ft 131 kts 116°
2026-04-27 15:05 43.32176 -2.96734 845 ft 130 kts 115°
2026-04-27 15:06 43.31770 -2.95627 641 ft 131 kts 114°
2026-04-27 15:06 43.31367 -2.94510 487 ft 130 kts 116°
2026-04-27 15:06 43.30969 -2.93414 300 ft 128 kts 115°
2026-04-27 15:06 43.30565 -2.92304 146 ft 128 kts 117°
2026-04-27 15:07 43.30214 -2.91346 148 ft 91 kts 116°
2026-04-27 15:07 43.30012 -2.90792 151 ft 39 kts 115°
2026-04-27 15:07 43.29934 -2.90551 149 ft 21 kts 103°
2026-04-27 15:07 43.29924 -2.90381 147 ft 12 kts 88°
2026-04-27 15:08 43.29927 -2.90278 146 ft 7 kts 87°
2026-04-27 15:08 43.29956 -2.90220 147 ft 8 kts 17°
2026-04-27 15:08 43.30002 -2.90254 148 ft 8 kts 298°
2026-04-27 15:08 43.30032 -2.90336 150 ft 10 kts 296°
2026-04-27 15:09 43.30064 -2.90427 152 ft 10 kts 296°
2026-04-27 15:09 43.30101 -2.90526 154 ft 11 kts 296°
2026-04-27 15:09 43.30155 -2.90575 155 ft 10 kts 20°
2026-04-27 15:09 43.30219 -2.90524 156 ft 10 kts 19°
2026-04-27 15:10 43.30281 -2.90552 158 ft 9 kts 325°
2026-04-27 15:10 43.30333 -2.90602 160 ft 8 kts 321°
2026-04-27 15:10 43.30365 -2.90674 161 ft 9 kts 296°
2026-04-27 15:10 43.30394 -2.90752 162 ft 7 kts 296°
2026-04-27 15:11 43.30421 -2.90768 162 ft 4 kts 24°
2026-04-27 15:11 43.30442 -2.90754 163 ft 2 kts 26°
2026-04-27 15:11 43.30457 -2.90744 163 ft 2 kts 25°
2026-04-27 15:11 43.30464 -2.90740 164 ft 0 kts 26°
2026-04-27 15:12 43.30465 -2.90739 164 ft 0 kts 26°